Location: Mohawk View
(42.7837°N, 73.7885°W)
Time: 13:15:58
(UTC+00:00)

CZ-2D R/B - Pass Details

Date: 17 June 2021
Orbit: 791 x 845 km, 98.7° (Epoch: 26 July)

Event Time Altitude Azimuth Distance (km) Brightness Sun altitude
Rises 07:41:40 0° 1° (N) 3,304 6.2 -13.6°
Reaches altitude 10° 07:44:22 10° 349° (N) 2,368 5.1 -13.3°
Maximum altitude 07:48:30 24° 296° (WNW) 1,580 3.5 -12.8°
Enters shadow 07:51:52 13° 249° (WSW) 2,132 3.8 -12.4°
